Hourly Data Report for December 26, 2019

EUREKA CLIMATE
NUNAVUT
Current Station Operator: ECCC - MSC

79°59'21.000" N
85°56'02.000" W
10.00 m
2401199
71613
NEK

Download Data

Hourly Data (December 2019)
Hourly Data Report for December 26, 2019
TIME
LST
Temp Definition
°C
Dew Point Definition
°C
Rel Hum Definition
%
Precip. Amount Definition
mm

Wind Dir Definition
10's deg

Wind Spd Definition
km/h
Visibility Definition
km
Stn Press Definition
kPa
Hmdx Definition


Wind Chill Definition


Weather Definition


00:00 -18.2 -19.6 89 0.0 11 11   101.64   -25 LegendNANA
01:00 -18.6 -20.2 88 0.0 2 2   101.69   -20 LegendNANA
02:00 -18.2 -19.7 88 0.0 14 16   101.71   -27 LegendNANA
03:00 -18.7 -20.6 85 0.0 14 18   101.77   -28 LegendNANA
04:00 -19.8 -21.7 85 0.0 12 19   101.81   -30 LegendNANA
05:00 -18.3 -19.8 88 0.0 13 21   101.85   -29 LegendNANA
06:00 -17.7 -19.2 88 0.0 12 18   101.90   -27 LegendNANA
07:00 -17.0 -18.6 87 0.0 15 18   101.93   -26 LegendNANA
08:00 -18.3 -20.0 87 0.0 14 22   101.95   -29 LegendNANA
09:00 -19.7 -21.4 87 0.0 14 19   101.96   -30 LegendNANA
10:00 -20.9 -22.7 86 0.0 13 8   102.01   -27 LegendNANA
11:00 -21.6 -23.6 84 0.0 12 9   102.04   -29 LegendNANA
12:00 -21.0 -22.5 87 0.0 14 8   102.05   -27 LegendNANA
13:00 -20.7 -22.6 85 0.0 8 7   102.06   -26 LegendNANA
14:00 -21.7 -23.7 84 0.0 12 13   102.05   -30 LegendNANA
15:00 -23.0 -25.1 83 0.0 10 9   102.04   -30 LegendNANA
16:00 -22.3 -24.4 83 0.0 11 15   102.01   -32 LegendNANA
17:00 -21.8 -23.8 84 0.0 11 10   101.98   -29 LegendNANA
18:00 -22.6 -24.9 81 0.0 8 17   101.90   -33 LegendNANA
19:00 -23.6 -25.9 81 0.0 10 22   101.83   -36 LegendNANA
20:00 -24.5 -26.8 81 0.0 10 17   101.77   -35 LegendNANA
21:00 -24.4 -26.8 81 0.0 10 14   101.70   -34 LegendNANA
22:00 -23.8 -26.1 81 0.0 10 10   101.60   -32 LegendNANA
23:00 -24.1 -26.6 80 0.0 7 8   101.53   -31 LegendNANA

Notes on Data Quality.

Legend

  • E = Estimated
  • M = Missing
  • NA = Not Available*
  • [empty] = Indicates an unobserved value
Date modified: